Binghamton, NY

1:59 PM EST on November 22, 2019 (GMT -0500)
Binghamton Regional-Link

Weather History for KBGM - September, 2019

Change the Weather History Date:

Monday, September 30, 2019

  Actual Average Record
Temperature  
Mean Temperature 53 °F 54 °F  
Max Temperature 55 °F 63 °F 85 °F (1953)
Min Temperature 50 °F 45 °F 29 °F (1991)
Degree Days  
Heating Degree Days 12 11  
Month to date heating degree days 137 194  
Since 1 July heating degree days 174 257  
Cooling Degree Days 0 0  
Month to date cooling degree days 22 31  
Year to date cooling degree days 384 379  
Growing Degree Days 2 (Base 50)    
Moisture  
Dew Point 49 °F    
Average Humidity 82    
Maximum Humidity 100    
Minimum Humidity 63    
Precipitation  
Precipitation 0.13 in 0.13 in 4.24 in (2010)
Month to date precipitation 1.85 3.63  
Year to date precipitation 30.64 29.84  
Snow  
Snow 0.00 in 0.00 in T in (1992)
Month to date snowfall 0.0 0.0  
Since 1 July snowfall 0.0 0.0  
Since 1 September snowfall 0.0 0.0  
Snow Depth 0.00 in    
Sea Level Pressure  
Sea Level Pressure 30.25 in    
Wind  
Wind Speed 7 mph (SE)    
Max Wind Speed 13 mph    
Max Gust Speed 17 mph    
Visibility 6 miles    
Events Rain    
T = Trace of Precipitation, MM = Missing Value Source: NWS Daily Summary

Daily Weather History Graph

Daily Weather History Graph

Search for Another Location

Airport or City:

Astronomy

Sep. 30, 2019 Rise Set
Actual Time 6:59 AM EDT 6:47 PM EDT
Civil Twilight 6:31 AM EDT 7:15 PM EDT
Nautical Twilight 5:59 AM EDT 7:47 PM EDT
Astronomical Twilight 5:26 AM EDT 8:20 PM EDT
Moon 9:02 AM EDT (9/30) 8:19 PM EDT (9/30)
Length of Visible Light 12h 43m
Length of Day
11h 47m
Waxing Crescent, 5% of the Moon is Illuminated
Sep 30
Waxing Crescent
Oct 5
First Quarter
Oct 13
Full
Oct 21
Last Quarter
Oct 27
New

Hourly Weather History & Observations

Time (EDT) Temp. Dew Point Humidity Pressure Visibility Wind Dir Wind Speed Gust Speed Precip Events Conditions
12:53 AM 52.0 °F 44.1 °F 74% 30.33 in 10.0 mi ENE 4.6 mph - N/A   Clear
1:53 AM 52.0 °F 45.0 °F 77% 30.32 in 10.0 mi East 8.1 mph - N/A   Mostly Cloudy
2:53 AM 51.1 °F 45.0 °F 80% 30.30 in 10.0 mi East 5.8 mph - N/A   Scattered Clouds
3:53 AM 52.0 °F 45.0 °F 77% 30.28 in 10.0 mi East 3.5 mph - N/A   Clear
4:53 AM 50.0 °F 46.0 °F 86% 30.29 in 10.0 mi ENE 5.8 mph - N/A   Clear
5:53 AM 50.0 °F 46.0 °F 86% 30.29 in 10.0 mi East 5.8 mph - N/A   Partly Cloudy
6:53 AM 51.1 °F 44.1 °F 77% 30.31 in 10.0 mi East 8.1 mph - N/A   Partly Cloudy
7:53 AM 52.0 °F 39.9 °F 63% 30.30 in 10.0 mi SE 10.4 mph - N/A   Mostly Cloudy
8:24 AM 52.0 °F 39.9 °F 63% 30.29 in 10.0 mi SSE 10.4 mph - N/A   Overcast
8:53 AM 53.1 °F 39.0 °F 59% 30.30 in 10.0 mi SSE 9.2 mph - 0.00 in Rain Light Rain
9:15 AM 53.1 °F 39.9 °F 61% 30.29 in 10.0 mi SE 10.4 mph - 0.00 in   Overcast
9:53 AM 54.0 °F 41.0 °F 62% 30.30 in 10.0 mi SE 10.4 mph - 0.00 in   Overcast
10:53 AM 54.0 °F 44.1 °F 69% 30.31 in 5.0 mi SSE 8.1 mph - 0.00 in Rain Light Rain
11:24 AM 51.1 °F 46.0 °F 83% 30.30 in 2.5 mi SSE 5.8 mph - 0.01 in Rain Rain
11:34 AM 50.0 °F 46.9 °F 89% 30.29 in 1.5 mi SSE 5.8 mph - 0.08 in Rain Rain
11:50 AM 50.0 °F 48.2 °F 94% 30.29 in 2.5 mi SSE 8.1 mph - 0.11 in Rain Light Rain
11:53 AM 50.0 °F 48.0 °F 93% 30.30 in 2.5 mi SE 6.9 mph - 0.11 in Rain Light Rain
12:00 PM 50.0 °F 48.0 °F 93% 30.29 in 7.0 mi SE 10.4 mph - 0.00 in Rain Light Rain
12:53 PM 51.1 °F 50.0 °F 96% 30.28 in 7.0 mi SE 11.5 mph - 0.02 in   Overcast
1:15 PM 51.1 °F 50.0 °F 96% 30.26 in 5.0 mi SE 10.4 mph - N/A   Overcast
1:16 PM 51.1 °F 50.0 °F 96% 30.26 in 2.0 mi SE 9.2 mph - N/A   Overcast
1:38 PM 52.0 °F 51.1 °F 97% 30.25 in 1.5 mi SE 10.4 mph - N/A   Overcast
1:53 PM 52.0 °F 51.1 °F 97% 30.26 in 1.5 mi SE 10.4 mph - N/A   Overcast
1:58 PM 52.0 °F 51.1 °F 97% 30.24 in 2.0 mi SE 11.5 mph - N/A   Overcast
2:53 PM 52.0 °F 51.1 °F 97% 30.23 in 2.5 mi SE 11.5 mph - 0.00 in Rain Light Rain
3:53 PM 53.1 °F 52.0 °F 96% 30.21 in 2.5 mi SSE 12.7 mph - 0.00 in   Overcast
4:38 PM 53.1 °F 52.0 °F 96% 30.19 in 1.5 mi SSE 10.4 mph - 0.00 in   Overcast
4:53 PM 53.1 °F 53.1 °F 100% 30.20 in 1.5 mi SSE 9.2 mph - 0.00 in   Overcast
5:53 PM 53.1 °F 53.1 °F 100% 30.19 in 1.0 mi SSE 9.2 mph - 0.02 in Rain Light Rain
6:53 PM 54.0 °F 54.0 °F 100% 30.18 in 1.0 mi South 6.9 mph - 0.00 in   Overcast
6:59 PM 54.0 °F 54.0 °F 100% 30.17 in 3.0 mi South 8.1 mph - N/A   Overcast
7:35 PM 54.0 °F 54.0 °F 100% 30.17 in 2.0 mi South 6.9 mph - N/A   Overcast
7:53 PM 54.0 °F 54.0 °F 100% 30.18 in 2.0 mi South 5.8 mph - N/A   Overcast
8:06 PM 55.0 °F 54.0 °F 96% 30.18 in 7.0 mi South 6.9 mph - N/A   Overcast
8:53 PM 55.0 °F 54.0 °F 96% 30.18 in 8.0 mi South 6.9 mph - N/A   Overcast
9:53 PM 55.9 °F 55.0 °F 97% 30.17 in 8.0 mi South 10.4 mph - N/A   Overcast
10:08 PM 55.9 °F 55.0 °F 97% 30.16 in 9.0 mi South 6.9 mph - N/A   Overcast
10:15 PM 55.9 °F 55.0 °F 97% 30.16 in 9.0 mi South 8.1 mph - N/A   Overcast
10:45 PM 55.9 °F 55.0 °F 97% 30.16 in 9.0 mi South 8.1 mph - N/A   Overcast
10:53 PM 55.9 °F 55.9 °F 100% 30.16 in 9.0 mi South 6.9 mph - N/A   Overcast
11:53 PM 57.0 °F 55.9 °F 96% 30.15 in 10.0 mi SSW 8.1 mph - N/A   Overcast